Time,TemperatureF,DewpointF,PressureIn,WindDirection,WindDirectionDegrees,WindSpeedMPH,WindSpeedGustMPH,Humidity,HourlyPrecipIn,Conditions,Clouds,dailyrainin,SoftwareType,DateUTC
2013-10-29 10:11:00,39.0,37.0,30.32,ESE,118,2.0,6.0,94,0.00,,,0.00,,2013-10-29 14:11:00,
2013-10-29 10:21:00,39.0,37.0,30.32,NE,43,2.0,5.0,94,0.00,,,0.00,,2013-10-29 14:21:00,
2013-10-29 10:42:00,40.0,38.0,30.32,NE,47,0.0,7.0,93,0.00,,,0.00,,2013-10-29 14:42:00,
2013-10-29 10:52:00,41.0,39.0,30.32,NE,54,3.0,7.0,93,0.00,,,0.00,,2013-10-29 14:52:00,
2013-10-29 11:11:00,41.0,39.0,30.31,ENE,61,3.0,8.0,92,0.00,,,0.00,,2013-10-29 15:11:00,
2013-10-29 11:21:00,42.0,40.0,30.32,East,84,3.0,8.0,91,0.00,,,0.00,,2013-10-29 15:21:00,
2013-10-29 11:44:00,43.0,40.0,30.32,NE,56,1.0,6.0,89,0.00,,,0.00,,2013-10-29 15:44:00,
2013-10-29 11:54:00,43.0,40.0,30.31,ENE,63,1.0,6.0,88,0.00,,,0.00,,2013-10-29 15:54:00,
2013-10-29 12:12:00,44.0,41.0,30.31,ENE,60,1.0,5.0,88,0.00,,,0.00,,2013-10-29 16:12:00,
2013-10-29 12:23:00,44.0,40.0,30.31,ENE,64,2.0,5.0,86,0.00,,,0.00,,2013-10-29 16:23:00,
2013-10-29 12:43:00,45.0,41.0,30.30,NE,46,1.0,5.0,85,0.00,,,0.00,,2013-10-29 16:43:00,
2013-10-29 12:53:00,46.0,41.0,30.29,ENE,57,0.0,7.0,84,0.00,,,0.00,,2013-10-29 16:53:00,
2013-10-29 13:12:00,47.0,42.0,30.29,ENE,76,1.0,5.0,82,0.00,,,0.00,,2013-10-29 17:12:00,
2013-10-29 13:22:00,48.0,42.0,30.29,ESE,105,1.0,4.0,80,0.00,,,0.00,,2013-10-29 17:22:00,
2013-10-29 13:42:00,49.0,42.0,30.28,ESE,119,2.0,7.0,77,0.00,,,0.00,,2013-10-29 17:42:00,
2013-10-29 13:52:00,50.0,43.0,30.28,ESE,107,0.0,5.0,76,0.00,,,0.00,,2013-10-29 17:52:00,
2013-10-29 14:12:00,50.0,42.0,30.27,ESE,113,1.0,7.0,75,0.00,,,0.00,,2013-10-29 18:12:00,
2013-10-29 14:21:00,50.0,42.0,30.26,SE,132,0.0,5.0,74,0.00,,,0.00,,2013-10-29 18:21:00,
2013-10-29 14:42:00,51.0,43.0,30.24,SE,125,2.0,5.0,73,0.00,,,0.00,,2013-10-29 18:42:00,
2013-10-29 14:52:00,51.0,42.0,30.22,ESE,117,1.0,8.0,72,0.00,,,0.00,,2013-10-29 18:52:00,
2013-10-29 15:11:00,52.0,43.0,30.22,ESE,109,1.0,3.0,71,0.00,,,0.00,,2013-10-29 19:11:00,
2013-10-29 15:22:00,53.0,43.0,30.22,ENE,58,1.0,7.0,70,0.00,,,0.00,,2013-10-29 19:22:00,
2013-10-29 15:42:00,55.0,44.0,30.22,SE,144,1.0,5.0,67,0.00,,,0.00,,2013-10-29 19:42:00,
2013-10-29 15:53:00,56.0,44.0,30.22,SE,130,2.0,7.0,63,0.00,,,0.00,,2013-10-29 19:53:00,
2013-10-29 16:12:00,57.0,43.0,30.21,ESE,117,2.0,6.0,60,0.00,,,0.00,,2013-10-29 20:12:00,
2013-10-29 16:22:00,57.0,43.0,30.21,ESE,117,2.0,6.0,60,0.00,,,0.00,,2013-10-29 20:22:00,
2013-10-29 16:42:00,57.0,43.0,30.20,SE,128,2.0,7.0,60,0.00,,,0.00,,2013-10-29 20:42:00,
2013-10-29 16:52:00,57.0,43.0,30.20,NE,55,2.0,9.0,60,0.00,,,0.00,,2013-10-29 20:52:00,
2013-10-29 17:12:00,57.0,44.0,30.20,ESE,120,1.0,5.0,61,0.00,,,0.00,,2013-10-29 21:12:00,
2013-10-29 17:22:00,57.0,43.0,30.20,ESE,117,1.0,4.0,60,0.00,,,0.00,,2013-10-29 21:22:00,
2013-10-29 17:54:00,57.0,44.0,30.19,ESE,106,0.0,7.0,62,0.00,,,0.00,,2013-10-29 21:54:00,
2013-10-29 18:13:00,57.0,44.0,30.19,ESE,117,1.0,3.0,62,0.00,,,0.00,,2013-10-29 22:13:00,
2013-10-29 18:23:00,56.0,44.0,30.18,NE,49,1.0,5.0,63,0.00,,,0.00,,2013-10-29 22:23:00,
2013-10-29 18:43:00,56.0,44.0,30.17,ESE,112,0.0,3.0,64,0.00,,,0.00,,2013-10-29 22:43:00,
2013-10-29 18:53:00,56.0,44.0,30.17,ESE,112,0.0,3.0,64,0.00,,,0.00,,2013-10-29 22:53:00,
2013-10-29 19:12:00,55.0,44.0,30.16,ENE,66,0.0,4.0,66,0.00,,,0.00,,2013-10-29 23:12:00,
2013-10-29 19:22:00,55.0,44.0,30.17,ENE,62,0.0,3.0,67,0.00,,,0.00,,2013-10-29 23:22:00,
2013-10-29 19:42:00,55.0,45.0,30.17,ESE,120,0.0,3.0,68,0.00,,,0.00,,2013-10-29 23:42:00,
2013-10-29 19:53:00,54.0,44.0,30.17,ESE,106,0.0,3.0,69,0.00,,,0.00,,2013-10-29 23:53:00,
2013-10-29 20:11:00,54.0,45.0,30.18,ESE,105,0.0,2.0,71,0.00,,,0.00,,2013-10-30 00:11:00,
2013-10-29 20:21:00,54.0,46.0,30.18,ESE,104,0.0,1.0,73,0.00,,,0.00,,2013-10-30 00:21:00,
2013-10-29 20:42:00,53.0,45.0,30.18,ESE,103,0.0,2.0,74,0.00,,,0.00,,2013-10-30 00:42:00,
2013-10-29 20:52:00,53.0,45.0,30.18,ESE,115,0.0,2.0,74,0.00,,,0.00,,2013-10-30 00:52:00,
2013-10-29 21:12:00,53.0,46.0,30.19,ESE,119,0.0,3.0,76,0.00,,,0.00,,2013-10-30 01:12:00,
2013-10-29 21:22:00,52.0,46.0,30.18,South,178,0.0,1.0,79,0.00,,,0.00,,2013-10-30 01:22:00,
2013-10-29 21:42:00,52.0,46.0,30.18,SE,144,0.0,3.0,81,0.01,,,0.01,,2013-10-30 01:42:00,
2013-10-29 21:52:00,51.0,46.0,30.17,SE,144,0.0,2.0,83,0.01,,,0.01,,2013-10-30 01:52:00,
2013-10-29 22:11:00,51.0,46.0,30.17,ESE,117,0.0,5.0,84,0.01,,,0.01,,2013-10-30 02:11:00,
2013-10-29 22:22:00,51.0,46.0,30.17,ESE,117,0.0,2.0,84,0.01,,,0.01,,2013-10-30 02:22:00,
2013-10-29 22:42:00,51.0,46.0,30.17,ESE,106,0.0,2.0,84,0.00,,,0.01,,2013-10-30 02:42:00,